TimeAKDT,TemperatureF,Dew PointF,Humidity,Sea Level PressureIn,VisibilityMPH,Wind Direction,Wind SpeedMPH,Gust SpeedMPH,PrecipitationIn,Events,Conditions,WindDirDegrees,DateUTC
12:16 AM,39.2,35.6,87,30.58,10.0,Calm,Calm,-,N/A,,Overcast,0,2012-10-03 08:16:00
12:36 AM,39.2,35.6,87,30.57,10.0,East,4.6,-,N/A,,Overcast,80,2012-10-03 08:36:00
12:56 AM,39.2,35.6,87,30.56,10.0,East,6.9,-,N/A,,Overcast,80,2012-10-03 08:56:00
1:16 AM,39.2,35.6,87,30.56,10.0,ENE,6.9,-,N/A,,Overcast,70,2012-10-03 09:16:00
1:36 AM,39.2,35.6,87,30.56,10.0,East,3.5,-,N/A,,Overcast,90,2012-10-03 09:36:00
1:56 AM,39.2,35.6,87,30.56,10.0,Calm,Calm,-,N/A,,Overcast,0,2012-10-03 09:56:00
2:16 AM,39.2,35.6,87,30.56,10.0,Calm,Calm,-,N/A,,Overcast,0,2012-10-03 10:16:00
2:36 AM,39.2,37.4,93,30.56,10.0,Calm,Calm,-,N/A,,Overcast,0,2012-10-03 10:36:00
2:56 AM,39.2,35.6,87,30.55,10.0,Calm,Calm,-,N/A,,Overcast,0,2012-10-03 10:56:00
3:16 AM,39.2,35.6,87,30.56,10.0,Calm,Calm,-,N/A,,Overcast,0,2012-10-03 11:16:00
3:36 AM,39.2,35.6,87,30.55,10.0,East,4.6,-,N/A,,Overcast,80,2012-10-03 11:36:00
3:56 AM,41.0,35.6,81,30.55,10.0,Calm,Calm,-,N/A,,Overcast,0,2012-10-03 11:56:00
4:16 AM,39.2,35.6,87,30.55,10.0,Calm,Calm,-,N/A,,Overcast,0,2012-10-03 12:16:00
4:36 AM,39.2,35.6,87,30.54,10.0,ENE,3.5,-,N/A,,Overcast,70,2012-10-03 12:36:00
4:56 AM,41.0,35.6,81,30.53,10.0,East,6.9,-,N/A,,Overcast,90,2012-10-03 12:56:00
5:16 AM,41.0,35.6,81,30.54,10.0,East,5.8,-,N/A,,Overcast,90,2012-10-03 13:16:00
5:36 AM,41.0,35.6,81,30.54,10.0,East,5.8,-,N/A,,Overcast,100,2012-10-03 13:36:00
5:56 AM,42.8,35.6,76,30.54,10.0,East,5.8,-,N/A,,Overcast,90,2012-10-03 13:56:00
6:16 AM,42.8,35.6,76,30.53,10.0,ESE,3.5,-,N/A,,Overcast,110,2012-10-03 14:16:00
6:36 AM,42.8,35.6,76,30.52,10.0,Calm,Calm,-,N/A,,Overcast,0,2012-10-03 14:36:00
6:56 AM,42.8,35.6,76,30.52,10.0,Calm,Calm,-,N/A,,Overcast,0,2012-10-03 14:56:00
7:16 AM,41.0,35.6,81,30.52,10.0,Calm,Calm,-,N/A,,Overcast,0,2012-10-03 15:16:00
7:36 AM,41.0,35.6,81,30.53,10.0,Calm,Calm,-,N/A,,Overcast,0,2012-10-03 15:36:00
7:56 AM,41.0,35.6,81,30.53,10.0,ESE,3.5,-,N/A,,Overcast,110,2012-10-03 15:56:00
8:16 AM,42.8,35.6,76,30.53,10.0,ESE,5.8,-,N/A,,Overcast,120,2012-10-03 16:16:00
8:36 AM,44.6,35.6,71,30.52,10.0,ESE,5.8,-,N/A,,Overcast,120,2012-10-03 16:36:00
8:56 AM,44.6,35.6,71,30.53,10.0,ESE,6.9,-,N/A,,Overcast,120,2012-10-03 16:56:00
9:16 AM,44.6,35.6,71,30.53,10.0,ESE,5.8,-,N/A,,Overcast,120,2012-10-03 17:16:00
9:36 AM,44.6,37.4,76,30.52,10.0,ESE,6.9,-,N/A,,Overcast,120,2012-10-03 17:36:00
9:56 AM,44.6,37.4,76,30.53,10.0,East,9.2,-,N/A,,Overcast,90,2012-10-03 17:56:00
10:16 AM,44.6,37.4,76,30.53,10.0,ESE,4.6,-,N/A,,Overcast,120,2012-10-03 18:16:00
10:36 AM,44.6,37.4,76,30.53,10.0,ESE,5.8,-,N/A,,Overcast,120,2012-10-03 18:36:00
10:56 AM,46.4,37.4,71,30.53,10.0,East,4.6,-,N/A,,Overcast,100,2012-10-03 18:56:00
11:16 AM,46.4,37.4,71,30.53,10.0,ESE,4.6,-,N/A,,Overcast,110,2012-10-03 19:16:00
11:36 AM,46.4,37.4,71,30.54,10.0,ESE,4.6,-,N/A,,Overcast,110,2012-10-03 19:36:00
11:56 AM,46.4,37.4,71,30.53,10.0,SE,4.6,-,N/A,,Overcast,130,2012-10-03 19:56:00
12:16 PM,48.2,37.4,66,30.53,10.0,SE,3.5,-,N/A,,Overcast,140,2012-10-03 20:16:00
12:36 PM,46.4,37.4,71,30.53,10.0,Calm,Calm,-,N/A,,Overcast,0,2012-10-03 20:36:00
12:56 PM,48.2,37.4,66,30.52,10.0,SE,5.8,-,N/A,,Overcast,140,2012-10-03 20:56:00
1:16 PM,48.2,37.4,66,30.53,10.0,SE,3.5,-,N/A,,Overcast,140,2012-10-03 21:16:00
1:36 PM,48.2,37.4,66,30.53,10.0,SE,4.6,-,N/A,,Overcast,130,2012-10-03 21:36:00
1:56 PM,48.2,39.2,71,30.54,10.0,Calm,Calm,-,N/A,,Overcast,0,2012-10-03 21:56:00
2:16 PM,48.2,37.4,66,30.53,10.0,SE,8.1,-,N/A,,Overcast,130,2012-10-03 22:16:00
2:36 PM,48.2,39.2,71,30.53,10.0,Calm,Calm,-,N/A,,Overcast,0,2012-10-03 22:36:00
2:56 PM,48.2,39.2,71,30.52,10.0,Calm,Calm,-,N/A,,Overcast,0,2012-10-03 22:56:00
3:16 PM,48.2,39.2,71,30.52,10.0,South,3.5,-,N/A,,Overcast,190,2012-10-03 23:16:00
3:36 PM,48.2,39.2,71,30.52,10.0,Calm,Calm,-,N/A,,Overcast,0,2012-10-03 23:36:00
3:56 PM,48.2,39.2,71,30.52,10.0,Calm,Calm,-,N/A,,Overcast,0,2012-10-03 23:56:00
4:16 PM,48.2,39.2,71,30.52,10.0,Calm,Calm,-,N/A,,Overcast,0,2012-10-04 00:16:00
4:36 PM,48.2,39.2,71,30.52,10.0,Calm,Calm,-,N/A,,Overcast,0,2012-10-04 00:36:00
4:56 PM,48.2,39.2,71,30.51,10.0,Calm,Calm,-,N/A,,Overcast,0,2012-10-04 00:56:00
5:16 PM,48.2,39.2,71,30.51,10.0,Calm,Calm,-,N/A,,Overcast,0,2012-10-04 01:16:00
5:36 PM,48.2,39.2,71,30.51,10.0,Calm,Calm,-,N/A,,Overcast,0,2012-10-04 01:36:00
5:56 PM,48.2,39.2,71,30.51,10.0,Calm,Calm,-,N/A,,Overcast,0,2012-10-04 01:56:00
6:16 PM,48.2,37.4,66,30.51,10.0,Calm,Calm,-,N/A,,Overcast,0,2012-10-04 02:16:00
6:36 PM,46.4,39.2,76,30.51,10.0,Calm,Calm,-,N/A,,Overcast,0,2012-10-04 02:36:00
6:56 PM,46.4,39.2,76,30.52,10.0,Calm,Calm,-,N/A,,Overcast,0,2012-10-04 02:56:00
7:16 PM,44.6,41.0,87,30.52,10.0,Calm,Calm,-,N/A,,Overcast,0,2012-10-04 03:16:00
7:36 PM,46.4,39.2,76,30.52,10.0,NE,4.6,-,N/A,,Overcast,40,2012-10-04 03:36:00
7:56 PM,46.4,39.2,76,30.51,10.0,Calm,Calm,-,N/A,,Overcast,0,2012-10-04 03:56:00
8:16 PM,46.4,39.2,76,30.53,10.0,Calm,Calm,-,N/A,,Overcast,0,2012-10-04 04:16:00
8:36 PM,44.6,39.2,81,30.53,10.0,Calm,Calm,-,N/A,,Overcast,0,2012-10-04 04:36:00
8:56 PM,44.6,39.2,81,30.53,10.0,ENE,4.6,-,N/A,,Overcast,60,2012-10-04 04:56:00
9:36 PM,44.6,39.2,81,30.53,10.0,ENE,4.6,-,N/A,,Overcast,60,2012-10-04 05:36:00
9:56 PM,44.6,39.2,81,30.53,10.0,ENE,5.8,-,N/A,,Overcast,70,2012-10-04 05:56:00
10:16 PM,44.6,39.2,81,30.52,10.0,NE,4.6,-,N/A,,Overcast,40,2012-10-04 06:16:00
10:36 PM,44.6,39.2,81,30.53,10.0,Calm,Calm,-,N/A,,Overcast,0,2012-10-04 06:36:00
10:56 PM,44.6,39.2,81,30.53,10.0,Calm,Calm,-,N/A,,Overcast,0,2012-10-04 06:56:00
11:16 PM,44.6,39.2,81,30.53,10.0,Calm,Calm,-,N/A,,Overcast,0,2012-10-04 07:16:00
11:36 PM,44.6,39.2,81,30.53,10.0,Calm,Calm,-,N/A,,Overcast,0,2012-10-04 07:36:00
11:56 PM,44.6,39.2,81,30.53,10.0,Calm,Calm,-,N/A,,Overcast,0,2012-10-04 07:56:00